Alamogordo, NM

6:22 AM MST on November 21, 2019 (GMT -0700)
Alamogordo-White Sands Regional

Weather History for KALM - September, 2019

Change the Weather History Date:

Monday, September 9, 2019

  Actual Average Record
Temperature  
Mean Temperature 76 °F -  
Max Temperature 86 °F 88 °F 101 °F (1954)
Min Temperature 66 °F 61 °F 47 °F (1953)
Cooling Degree Days 11    
Growing Degree Days 26 (Base 50)    
Moisture  
Dew Point 60 °F    
Average Humidity 63    
Maximum Humidity 94    
Minimum Humidity 35    
Precipitation  
Precipitation 0.00 in - - ()
Sea Level Pressure  
Sea Level Pressure 30.02 in    
Wind  
Wind Speed 6 mph ()    
Max Wind Speed 13 mph    
Max Gust Speed 18 mph    
Visibility 10.0 miles    
Events Thunderstorm    
Averages and records for this station are not official NWS values.
T = Trace of Precipitation, MM = Missing Value Source: Averaged Metar Reports

Daily Weather History Graph

Daily Weather History Graph

Search for Another Location

Airport or City:

Astronomy

Sep. 09, 2019 Rise Set
Actual Time 6:43 AM MDT 7:18 PM MDT
Civil Twilight 6:18 AM MDT 7:43 PM MDT
Nautical Twilight 5:49 AM MDT 8:12 PM MDT
Astronomical Twilight 5:19 AM MDT 8:42 PM MDT
Moon 5:01 PM MDT (9/9) 2:32 AM MDT (9/9)
Length of Visible Light 13h 24m
Length of Day
12h 34m
Waxing Gibbous, 83% of the Moon is Illuminated
Sep 9
Waxing Gibbous
Sep 13
Full
Sep 21
Last Quarter
Sep 28
New
Oct 5
First Quarter

Hourly Weather History & Observations

Time (MDT) Temp. Heat Index Dew Point Humidity Pressure Visibility Wind Dir Wind Speed Gust Speed Precip Events Conditions
12:15 AM 71.6 °F - 59.0 °F 64% 30.01 in 10.0 mi SSE 11.5 mph - N/A   Overcast
12:35 AM 68.0 °F - 59.0 °F 73% 30.01 in 10.0 mi South 9.2 mph - N/A Thunderstorm Partly Cloudy
12:55 AM 68.0 °F - 59.0 °F 73% 30.01 in 10.0 mi South 4.6 mph - N/A   Scattered Clouds
1:15 AM 68.0 °F - 60.8 °F 78% 30.01 in 10.0 mi SSE 5.8 mph - N/A   Partly Cloudy
1:35 AM 68.0 °F - 60.8 °F 78% 30.01 in 10.0 mi Calm Calm - N/A   Partly Cloudy
1:55 AM 68.0 °F - 60.8 °F 78% 30.01 in 10.0 mi WSW 3.5 mph - N/A   Scattered Clouds
2:15 AM 68.0 °F - 62.6 °F 83% 30.00 in 10.0 mi NNW 3.5 mph - N/A   Mostly Cloudy
2:35 AM 68.0 °F - 62.6 °F 83% 30.00 in 10.0 mi NNE 3.5 mph - N/A   Partly Cloudy
2:55 AM 66.2 °F - 62.6 °F 88% 30.00 in 10.0 mi Calm Calm - N/A   Mostly Cloudy
3:15 AM 68.0 °F - 62.6 °F 83% 30.00 in 10.0 mi North 4.6 mph - N/A   Partly Cloudy
3:35 AM 68.0 °F - 62.6 °F 83% 30.01 in 10.0 mi WNW 3.5 mph - N/A   Scattered Clouds
3:55 AM 66.2 °F - 62.6 °F 88% 30.01 in 10.0 mi WNW 4.6 mph - N/A   Overcast
4:15 AM 66.2 °F - 62.6 °F 88% 30.02 in 10.0 mi NW 4.6 mph - N/A   Mostly Cloudy
4:35 AM 66.2 °F - 62.6 °F 88% 30.04 in 10.0 mi Calm Calm - N/A   Mostly Cloudy
4:55 AM 66.2 °F - 62.6 °F 88% 30.04 in 10.0 mi SE 4.6 mph - N/A   Overcast
5:15 AM 66.2 °F - 64.4 °F 94% 30.04 in 10.0 mi SSW 3.5 mph - N/A   Overcast
5:35 AM 68.0 °F - 62.6 °F 83% 30.04 in 10.0 mi Calm Calm - N/A   Overcast
5:55 AM 66.2 °F - 62.6 °F 88% 30.04 in 10.0 mi South 5.8 mph - N/A   Mostly Cloudy
6:15 AM 66.2 °F - 62.6 °F 88% 30.04 in 10.0 mi South 5.8 mph - N/A   Partly Cloudy
6:35 AM 66.2 °F - 62.6 °F 88% 30.05 in 10.0 mi South 4.6 mph - N/A   Clear
6:55 AM 66.2 °F - 62.6 °F 88% 30.05 in 10.0 mi South 5.8 mph - N/A   Clear
7:15 AM 66.2 °F - 62.6 °F 88% 30.06 in 10.0 mi SSW 4.6 mph - N/A   Clear
7:35 AM 66.2 °F - 62.6 °F 88% 30.07 in 10.0 mi Calm Calm - N/A   Clear
7:55 AM 68.0 °F - 62.6 °F 83% 30.07 in 10.0 mi Calm Calm - N/A   Clear
8:15 AM 71.6 °F - 62.6 °F 73% 30.08 in 10.0 mi Calm Calm - N/A   Clear
8:35 AM 71.6 °F - 60.8 °F 69% 30.08 in 10.0 mi Calm Calm - N/A   Partly Cloudy
8:55 AM 73.4 °F - 62.6 °F 69% 30.08 in 10.0 mi Calm Calm - N/A   Clear
9:15 AM 75.2 °F - 62.6 °F 65% 30.08 in 10.0 mi SW 5.8 mph - N/A   Clear
9:35 AM 75.2 °F - 60.8 °F 61% 30.09 in 10.0 mi South 9.2 mph - N/A   Clear
9:55 AM 75.2 °F - 59.0 °F 57% 30.09 in 10.0 mi South 11.5 mph - N/A   Clear
10:15 AM 77.0 °F - 60.8 °F 57% 30.09 in 10.0 mi South 12.7 mph 17.3 mph N/A   Clear
10:35 AM 77.0 °F - 60.8 °F 57% 30.09 in 10.0 mi SSW 11.5 mph 18.4 mph N/A   Clear
11:15 AM 77.0 °F - 62.6 °F 61% 30.09 in 10.0 mi SSW 11.5 mph - N/A   Clear
11:35 AM 78.8 °F - 62.6 °F 57% 30.09 in 10.0 mi SSW 9.2 mph - N/A   Clear
11:55 AM 78.8 °F - 60.8 °F 54% 30.08 in 10.0 mi South 10.4 mph - N/A   Clear
12:15 PM 77.0 °F - 60.8 °F 57% 30.07 in 10.0 mi South 5.8 mph - N/A   Clear
12:35 PM 80.6 °F 81.8 °F 62.6 °F 54% 30.07 in 10.0 mi South 11.5 mph 17.3 mph N/A   Clear
12:55 PM 82.4 °F 82.9 °F 60.8 °F 48% 30.07 in 10.0 mi SSE 10.4 mph - N/A   Clear
1:15 PM 82.4 °F 82.5 °F 59.0 °F 45% 30.06 in 10.0 mi SSE 9.2 mph - N/A   Clear
1:35 PM 82.4 °F 82.9 °F 60.8 °F 48% 30.05 in 10.0 mi South 11.5 mph 17.3 mph N/A   Clear
1:55 PM 84.2 °F 83.8 °F 59.0 °F 42% 30.03 in 10.0 mi SSE 8.1 mph - N/A   Clear
2:15 PM 84.2 °F 83.8 °F 59.0 °F 42% 30.02 in 10.0 mi South 9.2 mph - N/A   Clear
2:55 PM 84.2 °F 83.8 °F 59.0 °F 42% 30.00 in 10.0 mi South 6.9 mph - N/A   Clear
3:15 PM 86.0 °F 85.4 °F 59.0 °F 40% 30.00 in 10.0 mi South 12.7 mph - N/A   Clear
3:35 PM 86.0 °F 84.9 °F 57.2 °F 37% 29.98 in 10.0 mi SSW 11.5 mph 17.3 mph N/A   Clear
3:55 PM 86.0 °F 84.9 °F 57.2 °F 37% 29.97 in 10.0 mi SE 9.2 mph 18.4 mph N/A   Clear
4:15 PM 86.0 °F 84.5 °F 55.4 °F 35% 29.97 in 10.0 mi SSE 9.2 mph - N/A   Clear
4:35 PM 86.0 °F 84.5 °F 55.4 °F 35% 29.96 in 10.0 mi South 8.1 mph - N/A   Clear
4:55 PM 86.0 °F 84.5 °F 55.4 °F 35% 29.96 in 10.0 mi South 8.1 mph - N/A   Clear
5:15 PM 86.0 °F 84.5 °F 55.4 °F 35% 29.96 in 10.0 mi SSE 4.6 mph - N/A   Clear
5:35 PM 86.0 °F 84.9 °F 57.2 °F 37% 29.95 in 10.0 mi South 9.2 mph - N/A   Clear
5:55 PM 86.0 °F 84.9 °F 57.2 °F 37% 29.95 in 10.0 mi South 6.9 mph - N/A   Clear
6:15 PM 84.2 °F 83.0 °F 55.4 °F 37% 29.96 in 10.0 mi SSE 5.8 mph - N/A   Clear
6:35 PM 84.2 °F 83.5 °F 57.2 °F 40% 29.96 in 10.0 mi South 10.4 mph - N/A   Clear
6:55 PM 82.4 °F 82.0 °F 57.2 °F 42% 29.96 in 10.0 mi South 6.9 mph - N/A   Clear
7:15 PM 82.4 °F 82.0 °F 57.2 °F 42% 29.95 in 10.0 mi South 8.1 mph - N/A   Clear
7:35 PM 80.6 °F 81.1 °F 59.0 °F 48% 29.96 in 10.0 mi South 8.1 mph - N/A   Clear
7:55 PM 77.0 °F - 60.8 °F 57% 29.97 in 10.0 mi South 6.9 mph - N/A   Clear
8:15 PM 77.0 °F - 60.8 °F 57% 29.98 in 10.0 mi SSE 5.8 mph - N/A   Clear
8:35 PM 75.2 °F - 62.6 °F 65% 29.99 in 10.0 mi SSE 9.2 mph - N/A   Clear
8:55 PM 75.2 °F - 60.8 °F 61% 29.99 in 10.0 mi SSE 8.1 mph - N/A   Clear
9:15 PM 73.4 °F - 60.8 °F 65% 30.00 in 10.0 mi SSE 6.9 mph - N/A   Clear
9:35 PM 73.4 °F - 59.0 °F 61% 30.00 in 10.0 mi SSE 10.4 mph - N/A   Clear
9:55 PM 75.2 °F - 59.0 °F 57% 30.00 in 10.0 mi SSE 8.1 mph - N/A   Clear
10:15 PM 73.4 °F - 59.0 °F 61% 30.01 in 10.0 mi SSE 8.1 mph - N/A   Clear
10:35 PM 73.4 °F - 59.0 °F 61% 30.01 in 10.0 mi South 9.2 mph - N/A   Clear
10:55 PM 75.2 °F - 59.0 °F 57% 30.01 in 10.0 mi South 9.2 mph - N/A   Clear
11:15 PM 75.2 °F - 59.0 °F 57% 30.01 in 10.0 mi SSE 9.2 mph - N/A   Clear
11:35 PM 73.4 °F - 59.0 °F 61% 30.01 in 10.0 mi SSE 6.9 mph - N/A   Clear
11:55 PM 73.4 °F - 59.0 °F 61% 30.01 in 10.0 mi South 9.2 mph - N/A   Clear